Madison, SD

1:16 AM CDT on September 01, 2016 (GMT -0500)
Madison Municipal

Weather History for KMDS - August, 2013

Change the Weather History Date:

Tuesday, August 27, 2013

  Actual Average Record
Temperature  
Mean Temperature 79 °F -  
Max Temperature 89 °F 81 °F 89 °F (2013)
Min Temperature 69 °F 56 °F 53 °F (2014)
Cooling Degree Days 14    
Growing Degree Days 29 (Base 50)    
Moisture  
Dew Point 75 °F    
Average Humidity 87    
Maximum Humidity 100    
Minimum Humidity 66    
Precipitation  
Precipitation 0.00 in - - ()
Sea Level Pressure  
Sea Level Pressure 29.88 in    
Wind  
Wind Speed 7 mph (East)    
Max Wind Speed 12 mph    
Max Gust Speed -    
Visibility 10 miles    
Events      
Averages and records for this station are not official NWS values.
T = Trace of Precipitation, MM = Missing Value Source: NWS Daily Summary

Daily Weather History Graph

Daily Weather History Graph

Search for Another Location

Airport or City:

Trip Planner

Search our weather history database for the weather conditions in past years. The results will help you decide how hot, cold, wet, or windy it might be!

Date:

Astronomy

Aug. 27, 2013 Rise Set
Actual Time 6:46 AM CDT 8:12 PM CDT
Civil Twilight 6:16 AM CDT 8:42 PM CDT
Nautical Twilight 5:39 AM CDT 9:18 PM CDT
Astronomical Twilight 5:00 AM CDT 9:57 PM CDT
Moon 11:50 PM CDT (8/27) 2:00 PM CDT (8/27)
Length of Visible Light 14h 26m
Length of Day
13h 26m
Waning Gibbous, 57% of the Moon is Illuminated
Aug 27
Waning Gibbous
Aug 28
Last Quarter
Sep 5
New
Sep 12
First Quarter
Sep 19
Full

Hourly Weather History & Observations

Time (CDT) Temp. Heat Index Dew Point Humidity Pressure Visibility Wind Dir Wind Speed Gust Speed Precip Events Conditions
12:10 AM 75.2 °F - 75.2 °F 100% 29.87 in 10.0 mi South 6.9 mph - N/A   Clear
12:30 AM 75.2 °F - 75.2 °F 100% 29.87 in 10.0 mi South 6.9 mph - N/A   Clear
12:50 AM 75.2 °F - 75.2 °F 100% 29.86 in 10.0 mi South 9.2 mph - N/A   Clear
1:10 AM 75.2 °F - 75.2 °F 100% 29.85 in 10.0 mi South 10.4 mph - N/A   Clear
1:30 AM 75.2 °F - 73.4 °F 94% 29.85 in 10.0 mi SSW 10.4 mph - N/A   Clear
1:50 AM 75.2 °F - 73.4 °F 94% 29.85 in 10.0 mi SSW 9.2 mph - N/A   Clear
2:10 AM 73.4 °F - 73.4 °F 100% 29.85 in 10.0 mi SSW 9.2 mph - N/A   Clear
2:30 AM 73.4 °F - 73.4 °F 100% 29.84 in 10.0 mi South 9.2 mph - N/A   Clear
2:50 AM 73.4 °F - 73.4 °F 100% 29.84 in 10.0 mi South 8.1 mph - N/A   Clear
3:10 AM 71.6 °F - 71.6 °F 100% 29.84 in 10.0 mi South 10.4 mph - N/A   Clear
3:30 AM 71.6 °F - 71.6 °F 100% 29.83 in 10.0 mi SSW 10.4 mph - N/A   Clear
3:50 AM 71.6 °F - 71.6 °F 100% 29.83 in 10.0 mi South 9.2 mph - N/A   Clear
4:10 AM 69.8 °F - 69.8 °F 100% 29.83 in 10.0 mi South 11.5 mph - N/A   Clear
4:30 AM 71.6 °F - 71.6 °F 100% 29.82 in 10.0 mi SSW 11.5 mph - N/A   Clear
4:50 AM 71.6 °F - 71.6 °F 100% 29.83 in 10.0 mi SSW 8.1 mph - N/A   Clear
5:10 AM 69.8 °F - 69.8 °F 100% 29.84 in 10.0 mi SW 6.9 mph - N/A   Clear
5:30 AM 71.6 °F - 69.8 °F 94% 29.83 in 10.0 mi SSW 6.9 mph - N/A   Clear
5:50 AM 69.8 °F - 69.8 °F 100% 29.84 in 10.0 mi SW 6.9 mph - N/A   Clear
6:10 AM 69.8 °F - 68.0 °F 94% 29.84 in 10.0 mi SW 8.1 mph - N/A   Clear
6:30 AM 71.6 °F - 68.0 °F 88% 29.85 in 10.0 mi SW 9.2 mph - N/A   Clear
6:50 AM 71.6 °F - 68.0 °F 88% 29.85 in 10.0 mi WSW 8.1 mph - N/A   Clear
7:10 AM 71.6 °F - 68.0 °F 88% 29.86 in 10.0 mi WSW 5.8 mph - N/A   Clear
7:30 AM 73.4 °F - 68.0 °F 83% 29.86 in 10.0 mi SW 6.9 mph - N/A   Clear
7:50 AM 73.4 °F - 68.0 °F 83% 29.87 in 10.0 mi WSW 4.6 mph - N/A   Clear
8:10 AM 75.2 °F - 69.8 °F 83% 29.87 in 10.0 mi SW 3.5 mph - N/A   Clear
8:30 AM 77.0 °F - 69.8 °F 78% 29.87 in 10.0 mi WSW 5.8 mph - N/A   Clear
8:50 AM 77.0 °F - 71.6 °F 83% 29.87 in 10.0 mi NW 4.6 mph - N/A   Clear
9:10 AM 77.0 °F - 71.6 °F 83% 29.88 in 10.0 mi NNW 4.6 mph - N/A   Clear
9:30 AM 78.8 °F - 73.4 °F 83% 29.89 in 10.0 mi NNW 4.6 mph - N/A   Clear
9:50 AM 80.6 °F 85.4 °F 73.4 °F 79% 29.89 in 10.0 mi North 4.6 mph - N/A   Clear
10:10 AM 80.6 °F 86.2 °F 75.2 °F 84% 29.89 in 10.0 mi North 5.8 mph - N/A   Clear
10:30 AM 82.4 °F 89.5 °F 75.2 °F 79% 29.90 in 10.0 mi NNE 6.9 mph - N/A   Clear
10:50 AM 82.4 °F 89.5 °F 75.2 °F 79% 29.90 in 10.0 mi NE 5.8 mph - N/A   Clear
11:10 AM 82.4 °F 90.9 °F 77.0 °F 84% 29.90 in 10.0 mi NNE 5.8 mph - N/A   Clear
11:30 AM 84.2 °F 94.1 °F 77.0 °F 79% 29.90 in 10.0 mi ENE 4.6 mph - N/A   Clear
11:50 AM 84.2 °F 94.1 °F 77.0 °F 79% 29.90 in 10.0 mi NNE 4.6 mph - N/A   Clear
12:10 PM 86.0 °F 96.9 °F 77.0 °F 74% 29.90 in 10.0 mi NE 5.8 mph - N/A   Clear
12:30 PM 86.0 °F 99.3 °F 78.8 °F 79% 29.90 in 10.0 mi East 4.6 mph - N/A   Clear
12:50 PM 86.0 °F 96.9 °F 77.0 °F 74% 29.89 in 10.0 mi NNE 4.6 mph - N/A   Clear
1:10 PM 86.0 °F 99.3 °F 78.8 °F 79% 29.89 in 10.0 mi NE 3.5 mph - N/A   Clear
1:30 PM 87.8 °F 99.7 °F 77.0 °F 70% 29.89 in 10.0 mi North 3.5 mph - N/A   Clear
1:50 PM 89.6 °F 102.2 °F 77.0 °F 66% 29.89 in 10.0 mi NNE 5.8 mph - N/A   Clear
2:10 PM 89.6 °F 104.7 °F 78.8 °F 70% 29.89 in 10.0 mi NE 6.9 mph - N/A   Clear
2:30 PM 89.6 °F 104.7 °F 78.8 °F 70% 29.89 in 10.0 mi NE 4.6 mph - N/A   Clear
2:50 PM 89.6 °F 102.2 °F 77.0 °F 66% 29.89 in 10.0 mi NE 4.6 mph - N/A   Clear
3:10 PM 89.6 °F 102.2 °F 77.0 °F 66% 29.89 in 10.0 mi Calm Calm - N/A   Clear
3:30 PM 89.6 °F 102.2 °F 77.0 °F 66% 29.89 in 10.0 mi NE 3.5 mph - N/A   Partly Cloudy
3:50 PM 89.6 °F 102.2 °F 77.0 °F 66% 29.89 in 10.0 mi East 4.6 mph - N/A   Partly Cloudy
4:10 PM 89.6 °F 102.2 °F 77.0 °F 66% 29.89 in 10.0 mi Calm Calm - N/A   Partly Cloudy
4:30 PM 89.6 °F 102.2 °F 77.0 °F 66% 29.89 in 10.0 mi East 4.6 mph - N/A   Scattered Clouds
4:50 PM 89.6 °F 102.2 °F 77.0 °F 66% 29.89 in 10.0 mi East 3.5 mph - N/A   Partly Cloudy
5:10 PM 87.8 °F 99.7 °F 77.0 °F 70% 29.89 in 10.0 mi ENE 3.5 mph - N/A   Partly Cloudy
5:30 PM 86.0 °F 101.9 °F 80.6 °F 84% 29.89 in 10.0 mi NE 3.5 mph - N/A   Clear
5:50 PM 89.6 °F 104.7 °F 78.8 °F 70% 29.89 in 10.0 mi Calm Calm - N/A   Clear
6:10 PM 89.6 °F 104.7 °F 78.8 °F 70% 29.90 in 10.0 mi East 3.5 mph - N/A   Clear
6:30 PM 87.8 °F 104.9 °F 80.6 °F 79% 29.89 in 10.0 mi ENE 5.8 mph - N/A   Clear
6:50 PM 86.0 °F 104.7 °F 82.4 °F 89% 29.90 in 10.0 mi NE 6.9 mph - N/A   Clear
7:10 PM 84.2 °F 100.6 °F 82.4 °F 94% 29.90 in 10.0 mi ENE 5.8 mph - N/A   Clear
7:30 PM 82.4 °F 96.1 °F 82.4 °F 100% 29.91 in 10.0 mi ENE 6.9 mph - N/A   Clear
7:50 PM 82.4 °F 96.1 °F 82.4 °F 100% 29.91 in 10.0 mi ENE 8.1 mph - N/A   Clear
8:10 PM 80.6 °F 89.3 °F 80.6 °F 100% 29.92 in 10.0 mi East 6.9 mph - N/A   Clear
8:30 PM 80.6 °F 89.3 °F 80.6 °F 100% 29.92 in 10.0 mi East 6.9 mph - N/A   Partly Cloudy
8:50 PM 80.6 °F 89.3 °F 80.6 °F 100% 29.93 in 10.0 mi East 6.9 mph - N/A   Mostly Cloudy
9:10 PM 77.0 °F - 77.0 °F 100% 29.93 in 10.0 mi ENE 6.9 mph - N/A   Scattered Clouds
9:30 PM 77.0 °F - 77.0 °F 100% 29.94 in 10.0 mi East 8.1 mph - N/A   Clear
9:50 PM 77.0 °F - 77.0 °F 100% 29.94 in 10.0 mi ENE 8.1 mph - N/A   Clear
10:10 PM 77.0 °F - 77.0 °F 100% 29.94 in 10.0 mi East 6.9 mph - N/A   Clear
10:30 PM 77.0 °F - 77.0 °F 100% 29.95 in 10.0 mi East 6.9 mph - N/A   Clear
10:50 PM 75.2 °F - 75.2 °F 100% 29.95 in 10.0 mi ENE 6.9 mph - N/A   Partly Cloudy
11:10 PM 75.2 °F - 75.2 °F 100% 29.95 in 10.0 mi East 6.9 mph - N/A   Clear
11:55 PM 77.0 °F - 77.0 °F 100% 29.95 in 10.0 mi ENE 6.9 mph - N/A   Clear